CW9352 Weather Reports


Display with metric or nautical units.
time (UTC)temp
F
wind
direction
speed
MPH
gust
MPH
rain 1hr
in
rain 24hr
in
rain mn
in
humidity
%
barometer
mb
20260905201516 91 267 1.0 7.0 0.00 0.00 0.00 72 1013.7
20260905200516 91 271 2.0 7.0 0.00 0.00 0.00 71 1013.8
20260905195516 91 277 1.0 6.0 0.00 0.00 0.00 73 1014.0
20260905194516 90 280 2.0 6.0 0.00 0.00 0.00 72 1014.1
20260905193516 90 281 2.0 7.0 0.00 0.00 0.00 73 1014.4
20260905192536 90 278 2.0 7.0 0.00 0.00 0.00 72 1014.5
20260905191516 91 281 1.0 4.0 0.00 0.00 0.00 71 1014.8
20260905190536 92 265 1.0 4.0 0.00 0.00 0.00 69 1014.8
20260905185516 92 220 1.0 6.0 0.00 0.00 0.00 70 1014.9
20260905184517 91 270 0.0 5.0 0.00 0.00 0.00 72 1015.0
20260905183536 92 263 1.0 7.0 0.00 0.00 0.00 71 1015.2
20260905182516 92 286 1.0 7.0 0.00 0.00 0.00 71 1015.3
20260905181536 92 272 1.0 8.0 0.00 0.00 0.00 72 1015.3
20260905180516 92 272 1.0 6.0 0.00 0.00 0.00 72 1015.3
20260905175536 92 266 0.0 4.0 0.00 0.00 0.00 71 1015.5
20260905174516 92 273 1.0 4.0 0.00 0.00 0.00 71 1015.5
20260905173516 92 254 1.0 4.0 0.00 0.01 0.00 70 1015.5
20260905172516 92 281 0.0 2.0 0.00 0.01 0.00 73 1015.6
20260905172016 91 248 1.0 5.0 0.00 0.01 0.00 73 1015.6
20260905171016 91 270 1.0 6.0 0.00 0.01 0.00 74 1015.6
20260905170016 91 263 1.0 7.0 0.00 0.01 0.00 73 1015.8
20260905165015 91 265 1.0 4.0 0.00 0.01 0.00 74 1015.8
20260905164057 90 266 1.0 6.0 0.00 0.01 0.00 75 1015.7
20260905163017 90 257 1.0 4.0 0.00 0.01 0.00 75 1015.9
20260905162016 91 240 0.0 4.0 0.00 0.01 0.00 72 1016.0
20260905161016 91 265 1.0 5.0 0.00 0.01 0.00 73 1016.0
20260905160016 91 253 0.0 5.0 0.00 0.01 0.00 74 1016.1
20260905155016 91 259 0.0 4.0 0.00 0.01 0.00 73 1015.8
20260905154036 90 272 0.0 3.0 0.00 0.01 0.00 75 1015.8
20260905153036 90 272 0.0 4.0 0.00 0.01 0.00 74 1015.8
20260905152016 90 273 0.0 3.0 0.00 0.01 0.00 74 1015.8
20260905151016 90 277 0.0 3.0 0.00 0.01 0.00 73 1015.7
20260905150016 90 283 0.0 4.0 0.00 0.01 0.00 75 1015.8
20260905145016 89 271 1.0 4.0 0.00 0.01 0.00 76 1015.9
20260905144015 89 255 0.0 1.0 0.00 0.01 0.00 76 1015.9
20260905143036 88 0.0 1.0 0.00 0.01 0.00 78 1015.8
20260905142015 87 0.0 1.0 0.00 0.01 0.00 80 1015.8
20260905141015 87 0.0 1.0 0.00 0.01 0.00 80 1015.8
20260905140015 88 8 0.0 1.0 0.00 0.01 0.00 78 1015.7
20260905135018 88 338 0.0 1.0 0.00 0.01 0.00 81 1015.5
20260905134015 87 0.0 0.0 0.00 0.01 0.00 83 1015.5
20260905133016 87 0.0 0.0 0.00 0.01 0.00 81 1015.5
20260905132016 88 0.0 0.0 0.00 0.01 0.00 81 1015.4
20260905131035 86 0.0 0.0 0.00 0.01 0.00 85 1015.3
20260905130035 85 32 0.0 1.0 0.00 0.01 0.00 90 1015.3
20260905125016 82 13 0.0 1.0 0.00 0.01 0.00 96 1015.4
20260905124016 80 0.0 0.0 0.00 0.01 0.00 98 1015.3
20260905123016 78 0.0 0.0 0.00 0.01 0.00 98 1015.2
20260905122015 77 0.0 0.0 0.00 0.01 0.00 98 1015.3
20260905121015 77 0.0 0.0 0.00 0.01 0.00 97 1015.1
20260905120035 77 0.0 0.0 0.00 0.01 0.00 97 1015.0
20260905115036 77 0.0 0.0 0.00 0.01 0.00 97 1015.0
20260905114035 77 0.0 0.0 0.00 0.01 0.00 97 1015.0
20260905113015 77 0.0 0.0 0.00 0.01 0.00 97 1014.9
20260905112015 77 0.0 0.0 0.00 0.01 0.00 97 1014.9
20260905111015 77 0.0 0.0 0.00 0.01 0.00 97 1014.8
20260905110015 77 0.0 0.0 0.00 0.01 0.00 97 1014.7
20260905105015 77 0.0 0.0 0.00 0.01 0.00 97 1014.8
20260905104015 77 0.0 0.0 0.00 0.01 0.00 97 1014.7
20260905103015 77 0.0 0.0 0.00 0.01 0.00 96 1014.7
20260905102017 77 0.0 0.0 0.00 0.01 0.00 96 1014.7
20260905101017 77 0.0 0.0 0.00 0.01 0.00 96 1014.5
20260905100015 77 0.0 0.0 0.00 0.01 0.00 95 1014.5
20260905095016 78 0.0 0.0 0.00 0.01 0.00 95 1014.5
20260905094015 78 0.0 0.0 0.00 0.01 0.00 95 1014.5
20260905093015 78 0.0 0.0 0.00 0.01 0.00 94 1014.5
20260905092015 78 0.0 0.0 0.00 0.01 0.00 94 1014.6
20260905091015 79 0.0 0.0 0.00 0.01 0.00 93 1014.5
20260905090015 79 0.0 0.0 0.00 0.01 0.00 92 1014.5
20260905085015 80 0.0 0.0 0.00 0.01 0.00 90 1014.6
20260905084015 81 0.0 1.0 0.00 0.01 0.00 88 1014.4
20260905083015 82 0.0 1.0 0.00 0.01 0.00 89 1014.4
20260905082015 82 237 0.0 1.0 0.00 0.01 0.00 89 1014.3
20260905081015 82 338 0.0 1.0 0.00 0.01 0.00 89 1014.3
20260905080015 82 285 0.0 1.0 0.00 0.01 0.00 89 1014.3
20260905075035 81 268 0.0 1.0 0.00 0.01 0.00 91 1014.3
20260905074035 81 308 0.0 1.0 0.00 0.01 0.00 91 1014.3
20260905073015 82 307 0.0 1.0 0.00 0.01 0.00 90 1014.3
20260905072017 82 308 0.0 1.0 0.00 0.01 0.00 90 1014.2
20260905071015 82 0.0 0.0 0.00 0.01 0.00 90 1014.2
20260905070055 82 0.0 0.0 0.00 0.01 0.00 89 1014.2
20260905065015 82 0.0 0.0 0.00 0.01 0.00 89 1014.2
20260905064015 82 294 0.0 1.0 0.00 0.01 0.00 88 1014.1
20260905063015 82 247 0.0 1.0 0.00 0.01 0.00 88 1014.2
20260905062015 82 273 0.0 1.0 0.00 0.01 0.00 88 1014.3
20260905061015 82 212 0.0 1.0 0.00 0.01 0.00 88 1014.2
20260905060017 82 212 0.0 1.0 0.00 0.01 0.00 88 1014.3
20260905055037 82 223 0.0 2.0 0.00 0.01 0.00 88 1014.4
20260905054017 82 255 0.0 1.0 0.00 0.01 0.00 87 1014.4
20260905053017 82 0.0 0.0 0.00 0.01 0.00 87 1014.7
20260905052017 82 255 0.0 1.0 0.00 0.01 0.00 88 1014.7
20260905051017 82 287 0.0 2.0 0.00 0.01 0.00 88 1014.7
20260905050018 82 0.0 1.0 0.00 0.01 0.00 89 1014.8
20260905045017 81 246 0.0 2.0 0.00 0.01 0.01 91 1014.9
20260905044017 81 231 0.0 1.0 0.00 0.02 0.01 93 1015.0
20260905043017 81 0.0 0.0 0.00 0.02 0.01 92 1015.1
20260905042017 81 0.0 0.0 0.00 0.04 0.01 92 1015.1
20260905041017 81 0.0 0.0 0.00 0.06 0.01 92 1015.2
20260905040037 81 0.0 0.0 0.00 0.09 0.01 91 1015.3
20260905035037 82 0.0 0.0 0.00 0.14 0.01 90 1015.3
20260905034037 82 0.0 0.0 0.00 0.15 0.01 90 1015.5
20260905033020 82 132 0.0 1.0 0.00 0.16 0.01 91 1015.5
20260905032018 82 0.0 0.0 0.00 0.17 0.01 90 1015.5
20260905031036 83 128 0.0 1.0 0.00 0.17 0.01 90 1015.4
20260905030017 83 129 0.0 1.0 0.00 0.17 0.01 89 1015.5
20260905025017 83 148 0.0 1.0 0.00 0.17 0.01 89 1015.7
20260905024017 83 148 0.0 1.0 0.00 0.17 0.01 88 1015.7
20260905023017 83 150 0.0 1.0 0.00 0.17 0.01 89 1015.6
20260905022036 83 141 0.0 1.0 0.00 0.17 0.01 89 1015.6
20260905021017 83 141 0.0 1.0 0.00 0.17 0.01 89 1015.5
20260905020018 82 152 0.0 1.0 0.00 0.17 0.01 89 1015.5
20260905015017 82 0.0 1.0 0.00 0.17 0.01 89 1015.5
20260905014037 82 197 0.0 1.0 0.00 0.17 0.01 88 1015.4
20260905013037 82 0.0 0.0 0.00 0.17 0.01 88 1015.2
20260905012017 83 0.0 0.0 0.00 0.17 0.01 88 1015.1
20260905011017 83 198 0.0 1.0 0.00 0.17 0.01 88 1015.1
20260905010017 83 156 0.0 1.0 0.00 0.17 0.01 88 1015.0
20260905005037 83 183 0.0 2.0 0.00 0.17 0.01 88 1015.0
20260905004037 83 249 0.0 1.0 0.00 0.17 0.01 88 1014.9
20260905003017 83 210 0.0 1.0 0.00 0.17 0.01 87 1015.1
20260905002015 83 216 0.0 3.0 0.00 0.17 0.01 87 1015.1
20260905001017 84 251 0.0 1.0 0.00 0.17 0.01 86 1015.1
20260905000037 84 144 0.0 2.0 0.00 0.17 0.01 86 1015.2
20260904235016 84 228 0.0 1.0 0.00 0.17 0.01 85 1015.1
20260904234017 84 223 0.0 1.0 0.00 0.17 0.01 84 1014.9
20260904233017 84 205 0.0 1.0 0.00 0.17 0.01 84 1014.9
20260904232017 85 319 0.0 1.0 0.00 0.17 0.01 84 1015.1
20260904231017 85 153 0.0 1.0 0.00 0.17 0.01 83 1015.1
20260904230016 85 102 0.0 2.0 0.00 0.17 0.01 82 1015.1
20260904225037 86 190 0.0 1.0 0.00 0.17 0.01 82 1014.9
20260904224017 86 221 0.0 1.0 0.00 0.17 0.01 82 1014.8
20260904223017 86 252 0.0 1.0 0.00 0.17 0.01 81 1014.8
20260904222017 86 170 0.0 2.0 0.00 0.17 0.01 81 1014.7
20260904221038 86 169 0.0 2.0 0.00 0.17 0.01 80 1014.9
20260904220016 87 93 0.0 3.0 0.00 0.17 0.01 79 1014.8
20260904215017 88 77 0.0 2.0 0.00 0.17 0.01 79 1014.7
20260904214017 88 278 0.0 1.0 0.00 0.17 0.01 79 1014.8
20260904213017 88 100 0.0 3.0 0.00 0.17 0.01 79 1014.6
20260904212017 88 221 0.0 2.0 0.00 0.17 0.01 79 1014.5
20260904211017 88 275 0.0 1.0 0.00 0.17 0.01 79 1014.4
20260904210037 88 159 0.0 1.0 0.00 0.17 0.01 78 1014.4
20260904205017 88 267 0.0 4.0 0.00 0.17 0.01 78 1014.4
20260904204036 88 269 0.0 3.0 0.00 0.17 0.01 78 1014.4
20260904203017 88 273 0.0 2.0 0.00 0.17 0.01 77 1014.4
20260904202017 89 153 0.0 3.0 0.00 0.17 0.01 76 1014.8